Voltar ao catálogo

STAR ONE C1

AtivoComunicaçõesGEO
NORAD 32293·PAYLOAD·🇧🇷 Brazil

Lançado Nov 14, 2007 de Guiana Space Centre

Loading…

TLE

AtualizadoSource: Space-Track

Época: Sep 14, 2026, 22:10 UTC

1 32293U 07056A   26257.92373409 -.00000240  00000-0  00000-0 0  9993
2 32293   4.9852  74.6897 0011702 197.6554  15.0138  0.99067510 16279

Acompanhe STAR ONE C1 em tempo real com AllMySat

Download on the App Store